{"data":{"norad_id":53198,"intl_designator":"2022-084K","name":"STARLINK-4385","alt_names":[],"object_type":"PAYLOAD","status":"ACTIVE","operator":null,"country":"US","launch_date":"2022-07-22","launch_site_code":"AFWTR","launch_vehicle":null,"mission":null,"orbit_class":"UNKNOWN","rcs_meters":null,"size_class":null,"mass_kg":null,"dimensions":null,"purposes":["comms"],"wikipedia_slug":null,"has_3d_model":false,"image_url":null,"decayed_at":null,"tle_current":{"epoch":"2026-09-19T09:17:48.402528Z","epoch_age_seconds":168390,"freshness":"FRESH","line1":"1 53198U 22084K   26262.38736577 -.00000267  00000+0 -59483-5 0  9996","line2":"2 53198  97.2804 317.1602 0002070 123.5519 236.5922 15.33441006229170","mean_motion":15.33441006,"eccentricity":0.000207,"inclination_deg":97.2804,"raan_deg":317.1602,"arg_perigee_deg":123.5519,"mean_anomaly_deg":236.5922,"bstar":-5.9483e-6,"rev_number":22917,"period_min":93.906449244908,"perigee_km":464.13841358193,"apogee_km":466.97170209388,"semimajor_km":6843.6920578379,"source":"CELESTRAK","updated_at":"2026-09-20T09:00:40.190331Z"}}}